Verbier, Switzerland 16 day weather forecast

Slopes altitude range 1500 m - 3330m

Number of lifts: 89 Pistes: 412km

In some cases the lift and piste totals shown are for the ski domain (e.g. Three Valleys) rather than individual resort (e.g. Courchevel)

Overview

The 16 day weather forecast is fully updated 4 times every day.

    • Tue 19 MAR 2019
    • Tue 19
    • -14C -4C
    • Wed 20 MAR 2019
    • Wed 20
    • -11C 0C
    • Thu 21 MAR 2019
    • Thu 21
    • -8C 3C
    • Fri 22 MAR 2019
    • Fri 22
    • -5C 5C
    • Sat 23 MAR 2019
    • Sat 23
    • -2C 6C
    • Sun 24 MAR 2019
    • Sun 24
    • -2C 5C
    • Mon 25 MAR 2019
    • Mon 25
    • -3C 5C
    • Tue 26 MAR 2019
    • Tue 26
    • -2C 5C
    • Wed 27 MAR 2019
    • Wed 27
    • 0C 8C
    • Thu 28 MAR 2019
    • Thu 28
    • 0C 6C
    • Fri 29 MAR 2019
    • Fri 29
    • 0C 9C
    • Sat 30 MAR 2019
    • Sat 30
    • 1C 8C
    • Sun 31 MAR 2019
    • Sun 31
    • 0C 7C
    • Mon 01 APR 2019
    • Mon 01
    • 0C 6C
    • Tue 02 APR 2019
    • Tue 02
    • 1C 9C
    • Wed 03 APR 2019
    • Wed 03
    • 1C 11C

Date:

Time Type 0°C level Temp Chill Snow Cloud Speed Gust Dir Press
3:00 46m -14°C -14_3 0cm 28% 3mph 4mph 1025mB
6:00 44m -15°C -15_4 0cm 14% 4mph 4mph 1026mB
9:00 1192m -14°C -14_5 0cm 0% 5mph 5mph 1025mB
12:00 1509m -4°C -4_6 0cm 0% 6mph 6mph 1024mB
15:00 1482m -4°C -4_7 0cm 13% 7mph 8mph 1024mB
18:00 810m -4°C -4_4 0cm 32% 4mph 5mph 1027mB
21:00 412m -11°C -11_4 0cm 29% 4mph 5mph 1030mB
0:00 404m -11°C -11_5 0cm 15% 5mph 6mph 1031mB
3:00 406m -11°C -11_5 0cm 0% 5mph 6mph 1031mB
6:00 405m -11°C -11_5 0cm 0% 5mph 6mph 1032mB
9:00 1719m -11°C -11_3 0cm 0% 3mph 4mph 1031mB
12:00 2072m 0°C 0_1 0cm 0% 1mph 1mph 1030mB
15:00 2053m 0°C 0_2 0cm 0% 2mph 1mph 1029mB
18:00 1212m 0°C 0_3 0cm 0% 3mph 4mph 1031mB
21:00 1047m -7°C -7_7 0cm 0% 7mph 8mph 1033mB
0:00 999m -7°C -7_8 0cm 0% 8mph 9mph 1034mB
3:00 929m -8°C -8_8 0cm 0% 8mph 9mph 1033mB
6:00 899m -8°C -8_8 0cm 0% 8mph 9mph 1034mB
9:00 2258m -8°C -8_6 0cm 0% 6mph 8mph 1032mB
12:00 2501m 3°C 3_3 0cm 0% 3mph 4mph 1030mB
15:00 2504m 3°C 3_2 0cm 0% 2mph 2mph 1028mB
18:00 1773m 3°C 3_5 0cm 0% 5mph 6mph 1030mB
21:00 1527m -5°C -5_8 0cm 0% 8mph 9mph 1032mB
0:00 1312m -5°C -5_8 0cm 3% 8mph 9mph 1032mB
3:00 1306m -5°C -5_8 0cm 25% 8mph 9mph 1032mB
6:00 1529m -5°C -5_7 0cm 22% 7mph 8mph 1032mB
9:00 2970m -5°C -5_4 0cm 0% 4mph 5mph 1030mB
12:00 2957m 5°C 5_2 0cm 0% 2mph 3mph 1028mB
15:00 2873m 6°C 6_1 0cm 0% 1mph 2mph 1027mB
18:00 2118m 6°C 6_3 0cm 0% 3mph 4mph 1029mB
21:00 1996m -2°C -2_7 0cm 0% 7mph 7mph 1031mB
0:00 1947m -2°C -2_6 0cm 0% 6mph 7mph 1030mB
3:00 1901m -2°C -2_6 0cm 1% 6mph 7mph 1030mB
6:00 1903m -3°C -3_6 0cm 3% 6mph 7mph 1030mB
9:00 3013m -2°C -2_1 0cm 0% 1mph 1mph 1028mB
12:00 2892m 6°C 6_2 0cm 0% 2mph 1mph 1026mB
15:00 2851m 6°C 6_2 0cm 0% 2mph 2mph 1024mB
18:00 2302m 6°C 6_2 0cm 0% 2mph 2mph 1025mB
21:00 2233m 0°C 0_5 0cm 0% 5mph 6mph 1027mB
0:00 2111m -1°C -1_5 0cm 0% 5mph 6mph 1027mB
3:00 1988m -1°C -1_3 0cm 0% 3mph 4mph 1027mB
6:00 1929m -2°C -2_3 0cm 0% 3mph 3mph 1027mB
9:00 2450m -2°C -2_3 0cm 7% 3mph 3mph 1026mB
12:00 2554m 5°C 5_5 0cm 6% 5mph 5mph 1024mB
15:00 2561m 5°C 5_5 0cm 42% 5mph 6mph 1022mB
18:00 2123m 5°C 5_3 0cm 30% 3mph 4mph 1023mB
21:00 1962m -1°C -1_2 0cm 0% 2mph 3mph 1025mB
0:00 1944m -2°C -2_2 0cm 15% 2mph 3mph 1025mB
3:00 1838m -2°C -2_2 0cm 7% 2mph 2mph 1024mB
6:00 1762m -3°C -3_2 0cm 4% 2mph 3mph 1024mB
9:00 2296m -3°C -3_5 0cm 0% 5mph 5mph 1023mB
12:00 2491m 5°C 5_6 0cm 12% 6mph 5mph 1022mB
15:00 2436m 5°C 5_6 0cm 2% 6mph 6mph 1021mB
18:00 2151m 5°C 5_4 0cm 22% 4mph 4mph 1022mB
21:00 1994m -1°C -1_3 0cm 47% 3mph 3mph 1025mB
0:00 1957m -2°C -2_3 0cm 26% 3mph 3mph 1025mB
3:00 1943m -2°C -2_3 0cm 0% 3mph 3mph 1026mB
6:00 1925m -2°C -2_3 0cm 0% 3mph 3mph 1027mB
9:00 2426m -2°C -2_1 0cm 0% 1mph 2mph 1027mB
12:00 2566m 5°C 5_6 0cm 0% 6mph 5mph 1025mB
15:00 2548m 5°C 5_6 0cm 0% 6mph 6mph 1025mB
18:00 2073m 5°C 5_3 0cm 0% 3mph 4mph 1027mB
21:00 2096m -1°C -1_3 0cm 0% 3mph 4mph 1029mB
0:00 2203m -1°C -1_4 0cm 0% 4mph 4mph 1029mB
3:00 2240m -1°C -1_5 0cm 0% 5mph 5mph 1029mB
6:00 2282m -1°C -1_4 0cm 0% 4mph 5mph 1029mB
9:00 3160m 0°C 0_3 0cm 0% 3mph 2mph 1028mB
12:00 2976m 8°C 8_5 0cm 0% 5mph 5mph 1026mB
15:00 2810m 8°C 8_6 0cm 0% 6mph 6mph 1024mB
18:00 2266m 8°C 8_3 0cm 0% 3mph 3mph 1026mB
21:00 2250m 0°C 0_4 0cm 0% 4mph 5mph 1027mB
0:00 2208m 0°C 0_4 0cm 0% 4mph 6mph 1028mB
3:00 2129m 0°C 0_4 0cm 0% 4mph 5mph 1028mB
6:00 2069m -1°C -1_3 0cm 0% 3mph 4mph 1028mB
9:00 2458m 0°C 0_4 0cm 0% 4mph 4mph 1027mB
12:00 2587m 6°C 6_6 0cm 0% 6mph 5mph 1025mB
15:00 2589m 6°C 6_6 0cm 0% 6mph 5mph 1023mB
18:00 2380m 6°C 6_3 0cm 1% 3mph 4mph 1024mB
Morning 0mm 0 2114m -1°C -1_3 0cm 1% 3mph 3mph 1025mB
Afternoon 0mm 0 2511m 9°C 9_3 0cm 17% 3mph 4mph 1020mB
Morning 0mm 0 2172m 0°C 0_4 0cm 17% 4mph 5mph 1022mB
Afternoon 0.109375mm 0.3125 2332m 8°C 8_3 0cm 55% 3mph 5mph 1019mB
Morning 0.15625mm 0 1972m -1°C -1_3 0cm 79% 3mph 5mph 1022mB
Afternoon 0.0572917mm 0.0625 2203m 7°C 7_6 0cm 50% 6mph 10mph 1019mB
Morning 0.0104167mm 0 1932m -1°C -1_2 0cm 24% 2mph 3mph 1021mB
Afternoon 0.0416667mm 0.3125 2270m 6°C 6_4 0cm 55% 4mph 6mph 1018mB
Morning 0mm 0 2154m 0°C 0_6 0cm 21% 6mph 8mph 1021mB
Afternoon 0.015625mm 0.0625 2500m 9°C 9_5 0cm 51% 5mph 7mph 1019mB
Morning 0mm 0 2219m -1°C -1_7 0cm 6% 7mph 7mph 1024mB
Afternoon 0mm 0 2656m 11°C 11_2 0cm 15% 2mph 3mph 1023mB

16 day outlook at a glance

Forecast issued: 19/03/2019 00:18:49

Chat

Your comments and questions. In a resort? Let us know what it's like!


Characters left 250

For terms and conditions see Readers Comments on the Cookie and privacy policy page.